Flag for Guatemala Weather past 2 weeks in Escuintla, Guatemala

Now
79 °F

Scattered clouds.


Feels Like: 80 °F
Forecast: N/A
Wind: 16 mph from Northeast

Location: Guatemala Aeropuertola Aurora

Current Time: Jul 28, 2015 at 5:00:28 PM

Latest Report: Jul 28, 2015 at 4:00 PM


Visibility: N/A

Pressure: 30.18 "Hg

Humidity: 54%

Dew point: 61 °F

Location of EscuintlaLocation

Historic Weather in Escuintla — Graph

°F

Escuintla temperature yesterday

Maximum temperature yesterday: 79 °F (at 2:00 PM)
Minimum temperature yesterday: 63 °F (at 5:00 AM)
Average temperature yesterday: 70 °F

Past Weeks' High & Low Weather Summary

 TemperatureHumidityPressure
High81 °F (Jul 23, 2:00 PM)100% (Jul 14, 5:00 AM)30.36 "Hg (Jul 14, 5:00 AM)
Low61 °F (Jul 14, 4:00 AM)42% (Jul 13, 3:00 PM)30.18 "Hg (Jul 13, 4:00 PM)
Average69 °F79%30.28 "Hg
* Reported Jul 13 3:00 PM — Jul 28 3:00 PM, Escuintla, Weather by CustomWeather, © 2015

Note: Actual official high and low records may vary slightly from our data, if they occured in-between our weather recording intervals... More about our weather records

Advertising

Escuintla weather history for previous 24 hours

 ConditionsComfort  
Time TempWeatherWind HumidityBarometerVisibility
3:00 PM
Tue, Jul 28
79 °FScattered clouds.14 mph54%30.21 "HgN/A
2:00 PM79 °FPartly sunny.14 mph51%30.24 "HgN/A
1:00 PM77 °FOvercast.9 mph57%30.27 "HgN/A
12:00 PM73 °FOvercast.14 mph61%30.30 "HgN/A
11:00 AM73 °FOvercast.16 mph65%30.30 "HgN/A
10:00 AM70 °FOvercast.14 mph64%30.30 "HgN/A
9:00 AM70 °FOvercast.14 mph69%30.30 "HgN/A
8:00 AM66 °FOvercast.12 mph83%30.30 "HgN/A
7:00 AM64 °FOvercast.9 mph88%30.27 "HgN/A
6:00 AM64 °FBroken clouds.9 mph88%30.27 "HgN/A
5:00 AM64 °FPassing clouds.9 mph94%30.27 "HgN/A
4:00 AM64 °FPassing clouds.14 mph94%30.24 "HgN/A
3:00 AM64 °FPassing clouds.14 mph94%30.24 "HgN/A
2:00 AM64 °FPassing clouds.12 mph94%30.27 "HgN/A
1:00 AM64 °FPassing clouds.14 mph94%30.27 "HgN/A
12:00 AM66 °FPassing clouds.16 mph83%30.27 "HgN/A
11:00 PM
Mon, Jul 27
66 °FPassing clouds.16 mph78%30.30 "HgN/A
10:00 PM68 °FPassing clouds.18 mph78%30.30 "HgN/A
9:00 PM68 °FClear.16 mph78%30.27 "Hg10 mi
8:00 PM68 °FClear.16 mph73%30.27 "Hg10 mi
7:00 PM70 °FPassing clouds.16 mph83%30.27 "HgN/A
6:00 PM73 °FOvercast.14 mph61%30.24 "HgN/A
5:00 PM75 °FMore clouds than sun.16 mph57%30.21 "HgN/A
Weather by CustomWeather, © 2015

See weather overviewHow to use our weather pages